Preview of NWS' New Version of Forecast
This preview is not operational and should not be used for support decisions.

Regional Weather Roundup (RWR)

Issued by National Weather Service (NWS)

                            
000
ASUS43 KLSX 251807
RWRMO 

WEATHER SUMMARY FOR MISSOURI
NATIONAL WEATHER SERVICE SPRINGFIELD MO
100 PM CDT SUN AUG 25 2019

NOTE: "FAIR" INDICATES FEW OR NO CLOUDS BELOW 12,000 FEET WITH NO
       SIGNIFICANT WEATHER AND/OR OBSTRUCTIONS TO VISIBILITY.
       CURRENT SKY AND/OR WEATHER CONDITIONS ARE NOT AVAILABLE FOR
       CHILLICOTHE AND FARMINGTON.

MOZ001>031-035>038-043-044-053-054-251900-
...NORTHERN AND WESTERN MISSOURI...
  
CITY           SKY/WX    TMP DP  RH WIND       PRES   REMARKS
KANSAS CTY INT LGT RAIN  67  66  97 E9        29.90F FOG              
6HR MIN TEMP:  66; 6HR MAX TEMP:  68; 6HR PCP:  0.55;                

KANSAS C DTWN  HVY RAIN  69  66  90 NE8       29.88S FOG              
6HR MIN TEMP:  68; 6HR MAX TEMP:  70; 6HR PCP:  0.58;                

LEE'S SUMMIT   LGT RAIN  70  67  90 E8        29.89F FOG              
6HR MIN TEMP:  68; 6HR MAX TEMP:  71; 6HR PCP:  0.09;                

ST JOSEPH      LGT RAIN  67  65  93 E7        29.89F                  
6HR MIN TEMP:  65; 6HR MAX TEMP:  68; 6HR PCP:  0.46;                

CHILLICOTHE      N/A     68  64  87 E6        29.93F                  
6HR MIN TEMP:  66; 6HR MAX TEMP:  69;                                

KIRKSVILLE     CLOUDY    68  63  84 E9        29.96F                  
6HR MIN TEMP:  63; 6HR MAX TEMP:  68;                                

     
$$
MOZ066>068-077>081-088>096-101>105-251900-
...SOUTHWEST MISSOURI...
  
CITY           SKY/WX    TMP DP  RH WIND       PRES   REMARKS
SPRINGFIELD    CLOUDY    77  69  76 S9        29.91F                  
6HR MIN TEMP:  68; 6HR MAX TEMP:  78;                                

JOPLIN         LGT RAIN  69  68  96 SE5       29.88F                  
6HR MIN TEMP:  67; 6HR MAX TEMP:  74; 6HR PCP:  0.30;                

BRANSON        CLOUDY    79  73  83 S13       29.94F                  
               
$$
MOZ032>034-039>042-045>050-055>058-069>072-251900-
...CENTRAL MISSOURI...  
  
CITY           SKY/WX    TMP DP  RH WIND       PRES   REMARKS
COLUMBIA       CLOUDY    74  67  78 SE7       29.94F                  
6HR MIN TEMP:  65; 6HR MAX TEMP:  74;                                

JEFFERSON CITY CLOUDY    75  67  76 E9        29.93F                  
6HR MIN TEMP:  67; 6HR MAX TEMP:  75;                                

ROLLA          CLOUDY    75  68  78 S8        29.96S                  
6HR MIN TEMP:  64; 6HR MAX TEMP:  76;                                

SEDALIA        CLOUDY    70  68  93 E10       29.92F                  
6HR MIN TEMP:  64; 6HR MAX TEMP:  70;                                

WHITEMAN AFB   CLOUDY    72  70  94 E7        29.86F                  
WARRENSBURG    CLOUDY    70  66  88 E12       29.89F                  
OSAGE BEACH    CLOUDY    75  69  81 SE7       29.94F                  
               
$$
MOZ051-052-059>065-251900-
...EAST CENTRAL MISSOURI...
  
CITY           SKY/WX    TMP DP  RH WIND       PRES   REMARKS
ST LOUIS INTL  LGT RAIN  69  64  84 SE9       29.99S                  
6HR MIN TEMP:  67; 6HR MAX TEMP:  74; 6HR PCP:  0.05;                

SPIRIT OF STL  LGT RAIN  67  65  93 E6        29.97F FOG              
6HR MIN TEMP:  67; 6HR MAX TEMP:  71; 6HR PCP:  0.44;                

ST CHARLES       N/A    N/A N/A N/A MISG      29.97F                  
                   
$$
MOZ072>076-082>087-097>100-106>115-251900-
...SOUTH CENTRAL AND SOUTHEAST MISSOURI...
  
CITY           SKY/WX    TMP DP  RH WIND       PRES   REMARKS
CAPE GIRARDEAU CLOUDY    79  69  71 S5        29.96F                  
6HR MIN TEMP:  69; 6HR MAX TEMP:  79;                                

FARMINGTON     CLOUDY    75  71  87 VRB3      29.98F                  
6HR MIN TEMP:  64; 6HR MAX TEMP:  75;                                

POPLAR BLUFF   RAIN      73  71  93 CALM      29.97S FOG              
6HR MIN TEMP:  68; 6HR MAX TEMP:  76; 6HR PCP:  0.06;                

WEST PLAINS    CLOUDY    75  70  84 S9        29.97F                  
6HR MIN TEMP:  65; 6HR MAX TEMP:  75;                                

                                       
$$